DAMPE

Last updated on Sat Sep 13 2025 00:03:34 GMT+0000 (Coordinated Universal Time)

1 41173U 15078A 25255.59605851 .00001330 00000+0 48793-4 0 9996 2 41173 97.4535 254.9620 0011827 349.5344 10.5648 15.29720346542093
UTC large
Height (km)
Speed (km/s)
/
Latitude / Longitude
Inclination (degrees)
Orbital Period (minutes)
Azimuth
Elevation
Range (km)
Doppler Factor

Next 0 passes for location: London (51.5072 / 0.1276)

Sorry there are no passes over London.